(455) Bruchsalia
ephemeris date magn radius delta ra dec elong phase
Today11 Jun 202612.12.188 AU1.298 AU20h03m-29°08'141.9°16.6°
Opposition13 Jul 202611.22.094 AU1.093 AU19h45m-34°59'166.4°6.6°
(455) Bruchsalia - 2026-06-11
astro.vanbuitenen.nl


 
-1 year
-1 month
-1 day
Now
+1 day
+1 month
+1 year

The interactive orbit chart above shows the body's path through the solar system and its position at the given date. Green and blue lines are shown perpendicular to the ecliptic plane: Green if the path is above the ecliptic plane, blue if it is below. (Left-click and drag to rotate the view; Right-click and drag to move the view; Use scroll wheel to zoom in our out.)

The orbital elements of Bruchsalia are:

            e (Eccentricity)                : 0.2943201
            a (Semimajor axis)              : 2.6564184
            i (Inclination)                 : 12.01664
            Ω (Longitude of ascending node) : 76.06977
            ω (Argument of perihelion)      : 273.34337
            M (Mean anomaly)                : 319.82968
            Epoch                           : 2026 Jun 09

            L (Longitude of perihelion)     : -10.51213
            B (Latitude of perihelion)      : -11.99588
            P (Orbital period in years)     : 4.33            
        

The light curve chart below shows the estimated development of the minor planet's magnitude.


The all-sky chart below shows the path of the minor planet over the same period as the light curve. The current position is marked yellow.





The following chart shows the path of the minor planet in the next few days. The field of view is optimized for (~10x50) binoculars and finderscopes.




Ephemerides:
Date       Time       RA (2000)    DEC (2000)    delta   radius  elong  phase   PA    magn
2026-06-11 00:00 UT   20 03 38.6   -29 08 03     1.298    2.188  141.9   16.6   269   12.1 
2026-06-11 00:19 UT   20 03 38.5   -29 08 11     1.297    2.188  141.9   16.6   269   12.1 
2026-06-12 00:00 UT   20 03 34.8   -29 17 46     1.288    2.185  142.9   16.3   270   12.1 
2026-06-13 00:00 UT   20 03 29.0   -29 27 38     1.279    2.182  143.8   15.9   270   12.0 
2026-06-14 00:00 UT   20 03 21.1   -29 37 38     1.270    2.179  144.8   15.6   271   12.0 
2026-06-15 00:00 UT   20 03 11.3   -29 47 46     1.261    2.176  145.7   15.2   272   12.0 
2026-06-16 00:00 UT   20 02 59.4   -29 58 03     1.252    2.173  146.7   14.9   273   11.9 
2026-06-17 00:00 UT   20 02 45.5   -30 08 27     1.243    2.170  147.6   14.5   273   11.9 
2026-06-18 00:00 UT   20 02 29.5   -30 18 58     1.235    2.167  148.6   14.1   274   11.9 
2026-06-19 00:00 UT   20 02 11.6   -30 29 35     1.227    2.164  149.5   13.8   275   11.9 
2026-06-20 00:00 UT   20 01 51.7   -30 40 19     1.218    2.161  150.5   13.4   276   11.8 
2026-06-21 00:00 UT   20 01 29.7   -30 51 09     1.211    2.158  151.4   13.0   277   11.8 
2026-06-22 00:00 UT   20 01 05.8   -31 02 04     1.203    2.156  152.4   12.6   279   11.8 
2026-06-23 00:00 UT   20 00 40.0   -31 13 03     1.196    2.153  153.3   12.2   280   11.7 
2026-06-24 00:00 UT   20 00 12.2   -31 24 07     1.189    2.150  154.2   11.9   281   11.7 
2026-06-25 00:00 UT   19 59 42.5   -31 35 15     1.182    2.147  155.2   11.5   283   11.7 
2026-06-26 00:00 UT   19 59 10.8   -31 46 26     1.175    2.144  156.1   11.1   284   11.6 
2026-06-27 00:00 UT   19 58 37.4   -31 57 39     1.168    2.141  157.0   10.7   286   11.6 
2026-06-28 00:00 UT   19 58 02.1   -32 08 54     1.162    2.138  157.9   10.3   288   11.6 
2026-06-29 00:00 UT   19 57 24.9   -32 20 11     1.156    2.135  158.7    9.9   290   11.5 
2026-06-30 00:00 UT   19 56 46.1   -32 31 29     1.150    2.132  159.6    9.6   292   11.5 
2026-07-01 00:00 UT   19 56 05.4   -32 42 46     1.144    2.129  160.4    9.2   294   11.5 
2026-07-02 00:00 UT   19 55 23.1   -32 54 03     1.139    2.127  161.2    8.9   297   11.5 
2026-07-03 00:00 UT   19 54 39.2   -33 05 19     1.134    2.124  162.0    8.5   300   11.4 
2026-07-04 00:00 UT   19 53 53.6   -33 16 32     1.129    2.121  162.7    8.2   303   11.4 
2026-07-05 00:00 UT   19 53 06.6   -33 27 43     1.124    2.118  163.4    7.9   306   11.4 
2026-07-06 00:00 UT   19 52 18.0   -33 38 51     1.119    2.115  164.0    7.6   310   11.4 
2026-07-07 00:00 UT   19 51 28.0   -33 49 54     1.115    2.112  164.6    7.3   313   11.3 
2026-07-08 00:00 UT   19 50 36.7   -34 00 53     1.111    2.110  165.1    7.1   318   11.3 
2026-07-09 00:00 UT   19 49 44.1   -34 11 46     1.107    2.107  165.5    6.9   322   11.3 
2026-07-10 00:00 UT   19 48 50.3   -34 22 33     1.103    2.104  165.9    6.8   327   11.3 
2026-07-11 00:00 UT   19 47 55.4   -34 33 13     1.100    2.101  166.2    6.6   332   11.3 


    Terminology:
            
    delta:  distance between minor planet and earth in AU
    radius: distance between minor planet and sun in AU
    magn:   magnitude (brightness) estimate    
    ra:     right ascension in hours (24h = 360deg)
    dec:    declination in degrees
    elong:  elongation in degrees (angle sun-earth-minor planet)    
    phase:  phase angle in degrees (angle sun-minor planet-earth)        
    AU:     Astronomical Unit (mean distance between earth and sun: 149597870.7 km
    

Orbital elements provided by the MPC (Minor Planet Center).
Calculations by a modified version of AAPlus, a C# implementation of the AA+ project by PJ Naughter from the algorithms presented in the book "Astronomical Algorithms" by Jean Meeus.
NGC2000 dso catalog and star labels from VizieR as provided by the Strasbourg astronomical Data Center.
Tycho2 catalog from the ESO archive.